Location: Zagreb
(45.8000°N, 16.0000°E)
Time: 00:05:15
(UTC+01:00)

Transit 2A Rocket - Pass Details

Date: 06 October 2020
Orbit: 586 x 916 km, 66.7° (Epoch: 28 October)

Event Time Altitude Azimuth Distance (km) Brightness Sun altitude
Rises 14:44:14 0° 174° (S) 3,504 9.0 32.2°
Reaches altitude 10° 14:47:05 10° 163° (SSE) 2,588 8.3 31.9°
Maximum altitude 14:52:02 27° 108° (ESE) 1,700 6.8 31.4°
Drops below altitude 10° 14:56:58 10° 54° (NE) 2,596 7.3 30.8°
Sets 14:59:49 0° 43° (NE) 3,518 7.9 30.5°
